Location: Treviso
(45.6669°N, 12.2430°E)
Time: 15:50:55
(UTC+02:00)

ISS - Pass Details

Date: 14 October 2018
Orbit: 403 x 408 km, 51.6° (Epoch: 16 October)

Event Time Altitude Azimuth Distance (km) Brightness Sun altitude
Rises 19:04:16 0° 287° (WNW) 2,336 1.5 -7.2°
Reaches altitude 10° 19:06:54 10° 265° (W) 1,471 0.8 -7.7°
Maximum altitude 19:09:00 16° 225° (SW) 1,162 -0.8 -8.0°
Drops below altitude 10° 19:11:05 10° 186° (S) 1,463 -0.9 -8.4°
Sets 19:13:43 0° 163° (SSE) 2,318 -0.1 -8.8°
